FW8143 Weather Reports


time (UTC)temp
F
wind
direction
speed
knots
gust
knots
rain 1hr
in
rain 24hr
in
rain mn
in
humidity
%
barometer
mb
20260507023047 47 254 4.3 9.6 0.00 0.09 0.01 45 1024.2
20260507022542 47 239 5.2 11.3 0.00 0.09 0.01 45 1023.9
20260507022035 47 250 6.1 13.0 0.00 0.09 0.01 45 1023.8
20260507021752 48 251 6.1 13.0 0.00 0.09 0.01 44 1023.7
20260507021023 48 266 7.0 12.2 0.00 0.09 0.01 43 1023.8
20260507020745 49 268 7.0 13.0 0.00 0.09 0.01 43 1023.5
20260507020233 49 267 7.0 13.9 0.00 0.09 0.01 42 1023.5
20260507015506 49 261 7.0 13.9 0.00 0.09 0.01 42 1023.4
20260507014959 50 257 7.0 13.9 0.00 0.09 0.01 42 1023.4
20260507014454 50 248 7.0 13.9 0.00 0.10 0.01 41 1023.2
20260507013947 51 263 7.8 14.8 0.00 0.11 0.01 41 1023.3
20260507013442 51 264 8.7 14.8 0.00 0.13 0.01 40 1023.2
20260507012935 51 242 7.8 15.6 0.00 0.16 0.01 40 1023.2
20260507012430 51 236 7.0 15.6 0.00 0.17 0.01 40 1023.2
20260507011924 50 5 7.8 18.2 0.00 0.17 0.01 39 1023.2
20260507011418 50 260 10.4 20.9 0.00 0.17 0.01 39 1023.2
20260507010912 50 297 11.3 20.9 0.00 0.17 0.01 39 1023.0
20260507010405 50 20 9.6 17.4 0.00 0.17 0.01 38 1022.9
20260507005900 51 318 7.8 14.8 0.00 0.17 0.01 40 1022.9
20260507005354 51 261 7.8 15.6 0.00 0.17 0.01 40 1022.5
20260507005112 51 176 7.8 17.4 0.00 0.17 0.01 40 1022.6
20260507004342 51 15 8.7 17.4 0.00 0.17 0.01 40 1022.4
20260507003835 51 297 7.0 17.4 0.00 0.17 0.01 40 1022.3
20260507003330 51 234 4.3 12.2 0.00 0.17 0.01 46 1022.1
20260507002823 51 300 3.5 12.2 0.00 0.17 0.01 49 1022.0
20260507002546 51 332 3.5 10.4 0.00 0.17 0.01 50 1022.0
20260507001812 51 0 5.2 14.8 0.00 0.17 0.01 51 1022.0
20260507001305 51 196 8.7 20.9 0.00 0.17 0.01 49 1022.0
20260507000800 52 275 8.7 20.9 0.00 0.17 0.01 43 1022.0
20260507000253 52 269 7.0 13.0 0.00 0.17 0.01 41 1021.6
20260506235748 52 273 7.8 16.5 0.00 0.17 0.01 41 1021.5
20260506235509 52 254 8.7 17.4 0.00 0.17 0.01 41 1021.5
20260506234736 52 258 7.8 17.4 0.00 0.17 0.01 41 1021.6
20260506234229 52 222 5.2 14.8 0.00 0.17 0.01 43 1021.6
20260506233723 51 211 3.5 9.6 0.00 0.17 0.01 47 1021.8
20260506233218 51 272 4.3 9.6 0.00 0.17 0.01 47 1021.8
20260506232711 51 268 5.2 9.6 0.00 0.17 0.01 47 1021.6
20260506232426 51 252 5.2 11.3 0.00 0.17 0.01 47 1021.5
20260506231700 51 291 5.2 11.3 0.00 0.17 0.01 47 1021.4
20260506231154 51 248 4.3 8.7 0.00 0.17 0.01 47 1021.5
20260506230648 51 5 4.3 10.4 0.00 0.17 0.01 47 1021.5
20260506230141 51 272 4.3 10.4 0.00 0.17 0.01 49 1021.6
20260506225636 50 300 6.1 12.2 0.00 0.17 0.01 53 1021.6
20260506225129 50 302 6.1 12.2 0.00 0.17 0.01 53 1021.5
20260506225112 50 281 7.0 13.0 0.00 0.17 0.01 54 1021.5
20260506224118 50 291 7.8 16.5 0.00 0.17 0.01 52 1021.5
20260506223611 50 310 8.7 17.4 0.00 0.17 0.01 52 1021.5
20260506223105 51 279 10.4 22.6 0.00 0.17 0.01 52 1021.6
20260506222559 52 273 11.3 22.6 0.00 0.17 0.01 49 1021.5
20260506222054 53 26 13.0 22.6 0.00 0.17 0.01 49 1021.3
20260506221548 54 329 12.2 22.6 0.00 0.17 0.01 47 1020.9
20260506221042 54 30 8.7 20.9 0.00 0.17 0.01 40 1020.6
20260506220536 54 260 8.7 20.9 0.00 0.17 0.01 41 1020.6
20260506220030 54 289 10.4 20.9 0.00 0.17 0.01 40 1020.5
20260506215747 54 277 9.6 20.9 0.00 0.17 0.01 38 1020.4
20260506215017 55 286 7.8 16.5 0.00 0.17 0.01 38 1020.4
20260506214518 55 270 8.7 18.2 0.00 0.17 0.01 39 1020.5
20260506214018 56 312 8.7 18.2 0.00 0.17 0.01 39 1020.6
20260506213519 55 236 8.7 16.5 0.00 0.17 0.01 41 1020.5
20260506213239 54 290 9.6 20.0 0.00 0.17 0.01 45 1020.5
20260506212518 53 241 11.3 20.0 0.00 0.17 0.01 45 1020.6
20260506212018 53 242 12.2 21.7 0.00 0.17 0.01 43 1020.5
20260506211518 54 253 12.2 21.7 0.00 0.17 0.01 43 1020.5
20260506211020 54 225 9.6 20.9 0.00 0.17 0.01 42 1020.4
20260506210518 54 283 7.8 13.9 0.00 0.17 0.01 44 1020.1
20260506210240 55 284 8.7 16.5 0.00 0.17 0.01 43 1020.3
20260506205518 55 218 7.8 16.5 0.00 0.17 0.01 42 1020.3
20260506205239 55 238 7.0 16.5 0.00 0.17 0.01 43 1020.3
20260506204518 55 234 7.8 16.5 0.00 0.17 0.01 43 1020.4
20260506204239 55 256 7.8 17.4 0.00 0.17 0.01 44 1020.5
20260506203520 54 253 8.7 18.2 0.00 0.17 0.01 46 1020.5
20260506203019 54 217 11.3 22.6 0.00 0.17 0.01 45 1020.6
20260506202512 55 248 9.6 22.6 0.00 0.17 0.01 44 1020.6
20260506202008 55 263 7.0 16.5 0.00 0.17 0.01 46 1020.5
20260506201508 55 232 7.8 17.4 0.00 0.17 0.01 45 1020.5
20260506201239 54 252 9.6 18.2 0.00 0.17 0.01 47 1020.5
20260506200508 54 282 10.4 18.2 0.00 0.17 0.01 45 1020.6
20260506200008 54 268 9.6 18.2 0.00 0.17 0.01 46 1020.5
20260506195507 54 234 10.4 20.9 0.00 0.17 0.01 46 1020.5
20260506195230 55 262 8.7 20.9 0.00 0.17 0.01 46 1020.5
20260506194508 55 256 8.7 19.1 0.00 0.17 0.01 47 1020.5
20260506194008 55 243 10.4 19.1 0.00 0.17 0.01 46 1020.5
20260506193508 55 239 11.3 20.0 0.00 0.17 0.01 46 1020.5
20260506193008 55 268 10.4 20.0 0.00 0.17 0.01 48 1020.5
20260506192504 54 208 9.6 18.2 0.00 0.17 0.01 51 1020.4
20260506192004 53 252 10.4 21.7 0.00 0.17 0.01 50 1020.5
20260506191504 53 246 8.7 21.7 0.00 0.17 0.01 51 1020.6
20260506191004 53 260 7.0 19.1 0.00 0.17 0.01 51 1020.6
20260506190504 54 263 7.0 19.1 0.00 0.17 0.01 50 1020.8
20260506190004 54 279 7.8 17.4 0.00 0.17 0.01 51 1020.6
20260506185504 54 208 7.8 17.4 0.00 0.17 0.01 51 1020.8
20260506185004 53 264 7.8 17.4 0.00 0.17 0.01 53 1020.8
20260506184504 53 297 7.0 16.5 0.00 0.17 0.01 52 1020.8
20260506183959 54 234 6.1 16.5 0.00 0.17 0.01 51 1020.9
20260506183716 54 203 7.0 15.6 0.00 0.17 0.01 52 1020.9
20260506183000 53 215 7.8 18.2 0.00 0.17 0.01 53 1021.1
20260506182459 53 313 8.7 19.1 0.00 0.17 0.01 52 1021.1
20260506181959 53 218 7.8 19.1 0.00 0.17 0.01 55 1021.3
20260506181459 53 234 7.0 14.8 0.00 0.17 0.01 57 1021.1
20260506181000 52 254 6.1 13.0 0.00 0.17 0.01 58 1021.3
20260506180725 51 183 7.0 13.0 0.00 0.17 0.01 57 1021.3
20260506180001 51 225 7.0 18.2 0.00 0.17 0.01 60 1021.3
20260506175454 51 240 7.0 18.2 0.00 0.17 0.01 59 1021.3
20260506174948 51 235 7.8 16.5 0.00 0.17 0.01 61 1021.4
20260506174443 50 177 8.7 16.5 0.00 0.17 0.01 61 1021.4
20260506173933 49 194 7.8 14.8 0.00 0.17 0.01 67 1021.3
20260506173426 48 220 7.0 13.0 0.00 0.17 0.01 66 1021.5
20260506172921 48 251 7.0 13.9 0.00 0.17 0.01 68 1021.4
20260506172415 47 184 7.0 13.0 0.00 0.17 0.01 69 1021.4
20260506171909 47 161 6.1 12.2 0.00 0.17 0.01 70 1021.4
20260506171403 46 201 5.2 12.2 0.00 0.17 0.01 72 1021.4
20260506170857 46 198 4.3 9.6 0.00 0.17 0.01 72 1021.5
20260506170351 46 200 2.6 8.7 0.00 0.17 0.01 72 1021.4
20260506165844 46 159 1.7 7.0 0.00 0.17 0.01 73 1021.3
20260506165339 45 262 2.6 7.0 0.00 0.17 0.01 74 1021.1
20260506164833 45 309 3.5 8.7 0.00 0.17 0.01 75 1021.1
20260506164545 45 271 4.3 10.4 0.00 0.17 0.01 76 1021.1
20260506163821 44 265 3.5 10.4 0.00 0.17 0.01 79 1021.1
20260506163538 44 217 2.6 6.1 0.00 0.17 0.01 79 1021.1
20260506162809 43 205 3.5 8.7 0.00 0.17 0.01 81 1021.3
20260506162521 43 238 4.3 8.7 0.00 0.17 0.01 82 1021.4
20260506161757 42 296 3.5 7.8 0.00 0.17 0.01 83 1021.3
20260506161251 42 278 3.5 7.0 0.00 0.17 0.01 83 1021.3
20260506160745 41 175 2.6 7.0 0.00 0.17 0.01 86 1021.1
20260506160239 41 178 2.6 9.6 0.00 0.17 0.01 87 1021.4
20260506155732 40 286 3.5 9.6 0.00 0.17 0.01 86 1021.4
20260506155227 40 268 2.6 7.8 0.00 0.17 0.01 88 1021.4
20260506154721 40 229 2.6 7.8 0.00 0.17 0.01 88 1021.4
20260506154215 40 243 2.6 7.8 0.00 0.17 0.01 87 1021.4
20260506153929 39 232 2.6 8.7 0.00 0.17 0.01 87 1021.5
20260506153203 39 233 4.3 9.6 0.00 0.17 0.01 88 1021.4
20260506152657 39 266 4.3 9.6 0.00 0.17 0.01 88 1021.4
20260506152151 39 211 2.6 7.8 0.00 0.17 0.01 88 1021.4
20260506151645 39 269 3.5 10.4 0.00 0.17 0.01 89 1021.4
20260506151139 39 237 5.2 10.4 0.00 0.17 0.01 90 1021.3
20260506150633 39 223 6.1 12.2 0.00 0.17 0.01 91 1021.4
20260506150126 39 250 6.1 12.2 0.00 0.17 0.01 92 1021.4
20260506145621 38 277 5.2 11.3 0.00 0.17 0.01 93 1021.4
20260506145115 38 205 3.5 9.6 0.00 0.17 0.01 94 1021.4
20260506144610 37 234 1.7 5.2 0.00 0.17 0.01 94 1021.4
20260506144103 37 215 2.6 5.2 0.00 0.17 0.01 94 1021.3
20260506143557 37 184 2.6 6.1 0.00 0.17 0.01 94 1021.1
20260506143050 37 183 1.7 6.1 0.00 0.17 0.01 94 1021.1
20260506142809 36 219 1.7 5.2 0.00 0.17 0.01 94 1021.1
20260506142039 36 198 2.6 5.2 0.00 0.17 0.01 94 1021.1
20260506141532 36 208 1.7 5.2 0.00 0.17 0.01 94 1021.1
20260506141247 35 240 0.9 4.3 0.00 0.17 0.01 94 1021.4
20260506140520 35 207 1.7 3.5 0.00 0.17 0.01 94 1021.3
20260506140015 35 207 1.7 3.5 0.00 0.17 0.01 94 1021.1
20260506135508 35 192 2.6 6.1 0.00 0.17 0.01 94 1021.3
20260506135003 35 188 1.7 6.1 0.00 0.17 0.01 94 1021.1
20260506134457 35 200 1.7 7.0 0.00 0.17 0.01 94 1021.3
20260506133951 34 241 2.6 8.7 0.00 0.17 0.01 94 1021.1
20260506133446 34 250 3.5 8.7 0.00 0.17 0.01 94 1021.0
20260506132940 34 211 2.6 7.8 0.00 0.17 0.01 94 1020.9
20260506132435 34 247 1.7 6.1 0.00 0.17 0.01 94 1020.9
20260506131928 33 232 1.7 3.5 0.00 0.17 0.01 93 1020.9
20260506131422 33 217 1.7 3.5 0.00 0.17 0.01 93 1020.9
20260506131133 33 223 1.7 5.2 0.00 0.17 0.01 93 1020.9
20260506130408 33 211 1.7 5.2 0.00 0.17 0.01 93 1020.8
20260506125903 33 246 1.7 3.5 0.00 0.17 0.01 93 1020.8
20260506125357 33 234 0.9 4.3 0.00 0.17 0.01 93 1020.8
20260506124850 33 210 0.9 5.2 0.00 0.17 0.01 93 1020.6
20260506124346 33 229 0.9 5.2 0.00 0.17 0.01 93 1020.8
20260506123841 33 189 0.9 3.5 0.00 0.17 0.01 93 1020.8
20260506123333 33 233 0.9 4.3 0.00 0.17 0.01 93 1020.5
20260506122828 33 208 0.9 4.3 0.00 0.17 0.01 93 1020.5
20260506122543 33 313 0.9 3.5 0.00 0.17 0.01 92 1020.5
20260506121817 33 86 0.9 6.1 0.00 0.17 0.01 93 1020.5
20260506121309 33 250 1.7 6.1 0.00 0.17 0.01 93 1020.5
20260506120802 33 192 0.9 5.2 0.00 0.17 0.01 93 1020.4
20260506120257 33 137 1.7 7.8 0.00 0.17 0.01 93 1020.4
20260506115750 33 145 1.7 7.8 0.00 0.17 0.01 93 1020.3
20260506115507 33 211 1.7 7.8 0.00 0.17 0.01 93 1020.4
20260506114739 33 243 2.6 7.8 0.00 0.17 0.01 93 1020.4
20260506114233 33 253 1.7 4.3 0.00 0.17 0.01 93 1020.3
20260506113952 33 227 1.7 5.2 0.00 0.17 0.01 93 1020.1
20260506113242 33 61 0.9 6.1 0.00 0.17 0.01 92 1020.1
20260506113220 33 248 1.7 5.2 0.00 0.17 0.01 92 1020.1
20260506112910 33 86 0.9 6.1 0.00 0.17 0.01 92 1020.0
20260506112146 33 194 1.7 6.1 0.00 0.17 0.01 92 1019.8
20260506111156 33 146 1.7 6.1 0.00 0.17 0.01 92 1019.6
20260506110911 33 150 0.9 3.5 0.00 0.17 0.01 92 1019.8
20260506110410 34 237 0.9 3.5 0.00 0.17 0.01 92 1019.9
20260506105900 34 355 0.0 2.6 0.00 0.17 0.01 92 1019.9
20260506105133 34 227 0.0 1.7 0.00 0.17 0.01 92 1019.9
20260506104856 34 227 0.0 2.6 0.00 0.17 0.01 92 1019.8
20260506104133 34 219 0.9 6.1 0.00 0.17 0.01 92 1019.8
20260506103633 34 209 0.9 6.1 0.00 0.17 0.01 92 1019.6
20260506103132 34 201 0.9 6.1 0.00 0.17 0.01 92 1019.8
20260506102633 34 251 0.9 6.1 0.00 0.17 0.01 92 1019.8
20260506102133 35 266 0.0 2.6 0.00 0.17 0.01 92 1019.8
20260506101633 35 221 0.9 2.6 0.00 0.17 0.01 92 1019.8
20260506101612 35 238 0.9 2.6 0.00 0.17 0.01 93 1019.9
20260506100633 35 238 1.7 2.6 0.00 0.17 0.01 93 1019.9
20260506100133 35 222 1.7 4.3 0.01 0.17 0.01 93 1019.9
20260506095633 35 243 1.7 4.3 0.01 0.17 0.01 93 1020.0
20260506095128 35 265 1.7 4.3 0.01 0.17 0.01 93 1019.9
20260506094630 35 240 1.7 4.3 0.01 0.17 0.01 93 1019.9
20260506094355 35 224 2.6 4.3 0.01 0.17 0.01 93 1019.9
20260506093628 35 248 1.7 4.3 0.01 0.17 0.01 93 1019.9
20260506093129 35 238 1.7 7.8 0.01 0.17 0.01 93 1019.9
20260506092629 35 247 0.9 7.8 0.01 0.17 0.01 93 1019.9
20260506092129 35 247 1.7 8.7 0.01 0.17 0.01 93 1019.9
20260506091629 35 253 1.7 8.7 0.01 0.17 0.01 93 1019.9
20260506091131 35 244 1.7 5.2 0.01 0.17 0.01 93 1019.9
20260506090848 35 258 0.9 3.5 0.01 0.17 0.01 93 1019.9
20260506090129 35 259 0.9 2.6 0.00 0.16 0.00 92 1019.9
20260506085630 35 252 0.9 2.6 0.00 0.16 0.00 92 1019.9
20260506085128 35 234 1.7 3.5 0.00 0.16 0.00 92 1019.8
20260506084629 35 213 0.9 3.5 0.00 0.16 0.00 92 1019.9
20260506084349 35 161 0.9 2.6 0.00 0.16 0.00 92 1019.8
20260506083849 35 148 0.9 3.5 0.00 0.16 0.00 92 1019.8
20260506083130 35 80 1.7 4.3 0.00 0.16 0.00 92 1019.8
20260506082627 35 286 0.9 4.3 0.00 0.16 0.00 92 1019.8
20260506082121 35 96 1.7 3.5 0.00 0.16 0.00 92 1019.6
20260506081841 35 93 1.7 3.5 0.00 0.16 0.00 92 1019.9
20260506081111 35 134 1.7 3.5 0.00 0.16 0.00 92 1019.9
20260506080605 36 137 1.7 3.5 0.00 0.16 0.00 92 1019.9
20260506073032 36 348 2.6 11.3 0.00 0.16 0.00 92 1020.4
20260506072751 36 260 1.7 11.3 0.00 0.16 0.00 92 1020.5
20260506072032 36 12 0.9 3.5 0.00 0.16 0.00 92 1020.4
20260506071534 37 90 0.9 3.5 0.00 0.16 0.00 92 1020.3
20260506071030 37 76 0.9 3.5 0.00 0.16 0.00 92 1020.3
20260506070529 37 149 1.7 7.8 0.00 0.16 0.00 93 1020.3
20260506062026 38 109 1.7 4.3 0.00 0.16 0.00 91 1020.3
20260506061526 38 70 1.7 3.5 0.00 0.16 0.00 91 1020.3
20260506061026 38 38 1.7 3.5 0.00 0.16 0.00 92 1020.3
20260506060524 38 57 1.7 3.5 0.00 0.16 0.00 92 1020.4
20260506051014 39 347 2.6 7.8 0.03 0.16 0.16 92 1020.9
20260506051005 39 298 2.6 7.8 0.03 0.16 0.16 92 1020.9
20260506045014 39 306 0.9 6.1 0.02 0.15 0.15 92 1020.8
20260506044515 39 204 0.9 6.1 0.01 0.14 0.15 92 1020.4
20260506044015 39 196 1.7 7.0 0.01 0.14 0.14 92 1020.8
20260506043515 39 101 1.7 7.0 0.01 0.14 0.14 91 1020.1
20260506043014 39 107 1.7 5.2 0.01 0.14 0.14 91 1020.0
20260506042736 39 73 2.6 5.2 0.01 0.14 0.14 91 1019.9
20260506042240 39 76 2.6 7.0 0.01 0.14 0.14 91 1019.8
20260506041514 39 71 3.5 8.7 0.01 0.14 0.14 91 1019.4
20260506041014 39 41 4.3 8.7 0.00 0.13 0.13 91 1019.8
20260506040512 39 38 4.3 8.7 0.00 0.13 0.13 91 1019.6
20260506040231 39 37 4.3 8.7 0.01 0.13 0.13 91 1019.9
20260506035513 40 5 4.3 7.8 0.02 0.13 0.13 91 1019.9
20260506035012 40 5 7.0 12.2 0.03 0.13 0.13 91 1019.9
20260506034511 40 47 7.8 12.2 0.04 0.13 0.13 91 1020.0
20260506034006 40 5 7.0 11.3 0.04 0.13 0.13 91 1020.1
20260506033506 40 11 6.1 11.3 0.04 0.13 0.13 91 1020.3
20260506033007 40 335 5.2 11.3 0.05 0.13 0.13 91 1020.3
20260506032507 40 306 6.1 12.2 0.05 0.13 0.13 90 1020.3
20260506032227 40 298 7.0 12.2 0.05 0.13 0.13 90 1020.1
20260506031733 40 17 7.0 13.0 0.05 0.13 0.13 90 1020.0
20260506031223 40 327 7.8 14.8 0.05 0.13 0.13 89 1019.9
20260506030505 41 355 7.8 14.8 0.05 0.13 0.13 89 1019.8
20260506030004 41 293 7.8 13.0 0.04 0.12 0.12 89 1019.9
20260506025505 42 302 7.0 13.0 0.03 0.11 0.11 89 1019.8
20260506025004 42 10 7.8 13.0 0.02 0.10 0.10 89 1019.6
20260506024504 42 301 7.8 13.0 0.02 0.09 0.09 88 1018.7
20260506024225 42 17 6.1 11.3 0.03 0.09 0.09 88 1018.0
20260506023505 42 16 4.3 8.7 0.05 0.09 0.09 87 1017.9